HB9TJR-3 Weather Reports


time (UTC)temp
C
wind
direction
speed
KPH
gust
KPH
rain 1hr
cm
rain 24hr
cm
rain mn
cm
humidity
%
barometer
mb
20260503053534 11 0 0.0 0.0 0.00 0.00 0.00 50 866.7
20260503051935 11 0 0.0 0.0 0.00 0.00 0.00 51 866.4
20260503043134 11 0 0.0 0.0 0.00 0.00 0.00 50 866.4
20260503041534 11 0 0.0 0.0 0.00 0.00 0.00 50 866.4
20260503035934 11 0 0.0 0.0 0.00 0.00 0.00 46 866.5
20260503034334 11 0 0.0 0.0 0.00 0.00 0.00 47 866.6
20260503032734 11 0 0.0 0.0 0.00 0.00 0.00 47 866.7
20260503031134 11 0 0.0 0.0 0.00 0.00 0.00 47 866.7
20260503025534 11 0 0.0 0.0 0.00 0.00 0.00 49 866.6
20260503023934 12 0 0.0 0.0 0.00 0.00 0.00 50 866.9
20260503022334 11 0 0.0 0.0 0.00 0.00 0.00 57 867.0
20260503020734 11 0 0.0 0.0 0.00 0.00 0.00 62 867.1
20260503015134 11 0 0.0 0.0 0.00 0.00 0.00 63 867.2
20260503013534 11 0 0.0 0.0 0.00 0.00 0.00 65 867.3
20260503010336 12 0 0.0 0.0 0.00 0.00 0.00 69 867.4
20260503004735 12 0 0.0 0.0 0.00 0.00 0.00 69 867.5
20260503003134 12 0 0.0 0.0 0.00 0.00 0.00 69 867.6
20260503001534 12 0 0.0 0.0 0.00 0.00 0.00 69 867.8
20260502235936 12 0 0.0 0.0 0.00 0.00 0.00 69 867.9
20260502234334 12 0 0.0 0.0 0.00 0.00 0.00 67 868.1
20260502232734 12 0 0.0 0.0 0.00 0.00 0.00 66 868.0
20260502231134 12 0 0.0 0.0 0.00 0.00 0.00 64 868.0
20260502225534 12 0 0.0 0.0 0.00 0.00 0.00 62 868.3
20260502223935 12 0 0.0 0.0 0.00 0.00 0.00 63 868.4
20260502222334 12 0 0.0 0.0 0.00 0.00 0.00 63 868.6
20260502220735 12 0 0.0 0.0 0.00 0.00 0.00 61 868.5
20260502215134 12 0 0.0 0.0 0.00 0.00 0.00 61 868.6
20260502213535 12 0 0.0 0.0 0.00 0.00 0.00 61 868.6
20260502211934 12 0 0.0 0.0 0.00 0.00 0.00 61 868.7
20260502210459 12 0 0.0 0.0 0.00 0.00 0.00 62 868.8
20260502210336 12 0 0.0 0.0 0.00 0.00 0.00 62 868.8
20260502204734 12 0 0.0 0.0 0.00 0.00 0.00 64 868.9
20260502203135 12 0 0.0 0.0 0.00 0.00 0.00 69 869.1
20260502201534 12 0 0.0 0.0 0.00 0.00 0.00 72 869.2
20260502195935 12 0 0.0 0.0 0.00 0.00 0.00 72 869.1
20260502194334 12 0 0.0 0.0 0.00 0.00 0.00 72 869.0
20260502192735 12 0 0.0 0.0 0.00 0.00 0.00 72 868.9
20260502191135 12 0 0.0 0.0 0.00 0.00 0.00 72 868.8
20260502185534 13 0 0.0 0.0 0.00 0.00 0.00 71 868.7
20260502183935 13 0 0.0 0.0 0.00 0.00 0.00 69 868.6
20260502182334 13 0 0.0 0.0 0.00 0.00 0.00 68 868.6
20260502170334 15 0 0.0 0.0 0.00 0.00 0.00 53 868.6
20260502163135 15 0 0.0 0.0 0.00 0.00 0.00 56 868.9
20260502161534 15 0 0.0 0.0 0.00 0.00 0.00 61 869.2
20260502151134 15 0 0.0 0.0 0.00 0.00 0.00 63 869.6
20260502130334 15 0 0.0 0.0 0.00 0.00 0.00 68 870.9
20260502123134 15 0 0.0 0.0 0.00 0.00 0.00 73 871.0
20260502121535 15 0 0.0 0.0 0.00 0.00 0.00 72 871.1
20260502111134 15 0 0.0 0.0 0.00 0.00 0.00 72 871.6
20260502105534 15 0 0.0 0.0 0.00 0.00 0.00 78 871.7
20260502103934 15 0 0.0 0.0 0.00 0.00 0.00 75 871.9
20260502100736 13 0 0.0 0.0 0.00 0.00 0.00 78 872.1
20260502090335 13 0 0.0 0.0 0.00 0.00 0.00 80 872.3